Weather History for KOPF - December, 2013

Change the Weather History Date:

Friday, December 20, 2013

  Actual Average (KMIA) Record (KMIA)
Temperature  
Mean Temperature 67 °F 70 °F  
Max Temperature 77 °F 77 °F 86 °F (1986)
Min Temperature 57 °F 62 °F 36 °F (1981)
Degree Days  
Heating Degree Days 0 1  
Month to date heating degree days 16  
Since 1 July heating degree days 19  
Cooling Degree Days 2 6  
Month to date cooling degree days 140  
Year to date cooling degree days 4512  
Growing Degree Days 17 (Base 50)    
Moisture  
Dew Point 68 °F    
Average Humidity 83    
Maximum Humidity 100    
Minimum Humidity 69    
Precipitation  
Precipitation 0.00 in 0.07 in 1.50 in (1973)
Month to date precipitation 1.38  
Year to date precipitation 61.24  
Snow  
Snow 0.00 in - - ()
Month to date snowfall  
Since 1 July snowfall  
Snow Depth -    
Sea Level Pressure  
Sea Level Pressure 30.15 in    
Wind  
Wind Speed 11 mph (ESE)    
Max Wind Speed 18 mph    
Max Gust Speed 28 mph    
Visibility 10 miles    
Events      
T = Trace of Precipitation, MM = Missing Value Source: NWS Daily Summary

Daily Weather History Graph

Daily Weather History Graph

Search for Another Location

Airport or City:

Trip Planner

Search our weather history database for the weather conditions in past years. The results will help you decide how hot, cold, wet, or windy it might be!

Date:

Astronomy

Dec. 20, 2013 Rise Set
Actual Time 7:03 AM EST 5:34 PM EST
Civil Twilight 6:38 AM EST 5:59 PM EST
Nautical Twilight 6:09 AM EST 6:28 PM EST
Astronomical Twilight 5:41 AM EST 6:56 PM EST
Moon 8:37 PM EST (12/20) 9:10 AM EST (12/20)
Length of Visible Light 11h 21m
Length of Day
10h 31m
Waning Gibbous, 90% of the Moon is Illuminated
Dec 20
Waning Gibbous
Dec 25
Last Quarter
Jan 1
New
Jan 7
First Quarter
Jan 15
Full

Hourly Weather History & Observations

Time (EST) Temp. Dew Point Humidity Pressure Visibility Wind Dir Wind Speed Gust Speed Precip Events Conditions
12:53 AM 69.1 °F 64.9 °F 87% 30.16 in 10.0 mi East 5.8 mph - N/A   Clear
1:53 AM 69.1 °F 66.9 °F 93% 30.15 in 10.0 mi East 8.1 mph - N/A   Partly Cloudy
2:53 AM 72.0 °F 66.9 °F 84% 30.14 in 10.0 mi East 8.1 mph - N/A   Scattered Clouds
3:53 AM 73.9 °F 66.9 °F 79% 30.14 in 10.0 mi East 10.4 mph - N/A   Overcast
4:53 AM 73.9 °F 68.0 °F 82% 30.14 in 10.0 mi East 11.5 mph - N/A   Overcast
5:53 AM 75.0 °F 68.0 °F 79% 30.15 in 10.0 mi East 10.4 mph - N/A   Overcast
6:53 AM 75.0 °F 69.1 °F 82% 30.17 in 10.0 mi East 9.2 mph - N/A   Overcast
7:53 AM 73.0 °F 70.0 °F 90% 30.17 in 10.0 mi ESE 11.5 mph - N/A   Overcast
8:53 AM 73.0 °F 69.1 °F 87% 30.18 in 10.0 mi ESE 13.8 mph - N/A   Overcast
9:53 AM 73.9 °F 66.9 °F 79% 30.19 in 10.0 mi ESE 17.3 mph 25.3 mph N/A   Partly Cloudy
10:53 AM 75.9 °F 66.9 °F 74% 30.19 in 10.0 mi ESE 17.3 mph 27.6 mph N/A   Scattered Clouds
11:15 AM 75.2 °F 66.2 °F 73% 30.19 in 10.0 mi East 18.4 mph 24.2 mph N/A   Mostly Cloudy
11:22 AM 75.2 °F 64.4 °F 69% 30.19 in 10.0 mi East 16.1 mph 24.2 mph N/A   Mostly Cloudy
11:53 AM 75.9 °F 66.9 °F 74% 30.18 in 10.0 mi East 16.1 mph 25.3 mph N/A   Scattered Clouds
12:53 PM 77.0 °F 66.0 °F 69% 30.16 in 10.0 mi ESE 13.8 mph 21.9 mph N/A   Scattered Clouds
1:53 PM 75.9 °F 66.9 °F 74% 30.13 in 10.0 mi East 15.0 mph - N/A   Mostly Cloudy
2:53 PM 75.9 °F 68.0 °F 76% 30.12 in 10.0 mi East 16.1 mph - N/A   Clear
3:53 PM 75.0 °F 70.0 °F 84% 30.12 in 10.0 mi ESE 13.8 mph - N/A   Scattered Clouds
4:03 PM 73.4 °F 69.8 °F 88% 30.12 in 10.0 mi ESE 13.8 mph - N/A   Mostly Cloudy
4:23 PM 73.4 °F 71.6 °F 94% 30.12 in 10.0 mi East 15.0 mph - N/A   Scattered Clouds
4:53 PM 73.0 °F 72.0 °F 96% 30.13 in 10.0 mi East 13.8 mph - N/A   Scattered Clouds
5:00 PM 73.4 °F 71.6 °F 94% 30.12 in 10.0 mi East 12.7 mph - N/A   Mostly Cloudy
5:53 PM 70.0 °F 70.0 °F 100% 30.13 in 10.0 mi ESE 10.4 mph - N/A   Partly Cloudy
6:53 PM 66.9 °F - N/A% 30.14 in 10.0 mi East 11.5 mph - N/A   Clear
7:53 PM 66.9 °F - N/A% 30.16 in 10.0 mi East 9.2 mph - N/A   Partly Cloudy
8:53 PM 66.9 °F - N/A% 30.17 in 10.0 mi East 11.5 mph - N/A   Mostly Cloudy
9:53 PM 57.0 °F - N/A% 30.18 in 10.0 mi ESE 8.1 mph - N/A   Overcast
10:53 PM 57.0 °F - N/A% 30.17 in 10.0 mi ESE 10.4 mph - N/A   Scattered Clouds
11:53 PM 57.0 °F - N/A% 30.17 in 10.0 mi ESE 9.2 mph - N/A   Scattered Clouds